Flag for Sweden Weather past 2 weeks in Stockholm, Sweden

Now
82 °F

Passing clouds.


Feels Like: 81 °F
Forecast: 58 / 79 °F
Wind: 6 mph from East

Location: Stockholm Bromma Airport

Current Time: Jul 22, 2014 at 2:13:01 PM

Latest Report: Jul 22, 2014 at 1:50 PM


Visibility: N/A

Pressure: 30.24 "Hg

Humidity: 35%

Dew point: 52 °F

Location of StockholmLocation

Historic Weather in Stockholm — Graph

°F

Stockholm temperature yesterday

Maximum temperature yesterday: 79 °F (at 12:20 PM)
Minimum temperature yesterday: 61 °F (at 12:20 AM)
Average temperature yesterday: 67 °F

Past Weeks' High & Low Weather Summary

 TemperatureHumidityPressure
High82 °F (Jul 7, 12:20 PM)100% (Jul 15, 3:20 AM)30.24 "Hg (Jul 15, 3:20 AM)
Low54 °F (Jul 12, 1:50 AM)36% (Jul 12, 2:20 PM)29.71 "Hg (Jul 13, 1:50 PM)
Average68 °F70%30.03 "Hg
* Reported Jul 7 12:20 PM — Jul 22 12:50 PM, Stockholm, Weather by CustomWeather, © 2014

Note: Actual official high and low records may vary slightly from our data, if they occured in-between our weather recording intervals... More about our weather records

Advertising

Stockholm weather history for previous 24 hours

 ConditionsComfort  
Time TempWeatherWind HumidityBarometerVisibility
12:50 PM
Jul 22
81 °FPassing clouds.8 mph42%30.24 "HgN/A
12:20 PM79 °FPassing clouds.6 mph51%30.24 "HgN/A
11:50 AM77 °FPassing clouds.6 mph57%30.24 "HgN/A
11:20 AM77 °FPassing clouds.6 mph57%30.24 "HgN/A
10:50 AM75 °FSunny.3 mph65%30.24 "Hg10 mi
10:20 AM73 °FSunny.3 mph69%30.24 "Hg10 mi
9:50 AM72 °FSunny.3 mph73%30.24 "Hg10 mi
9:20 AM68 °FPassing clouds.3 mph83%30.24 "HgN/A
8:50 AM66 °FScattered clouds.5 mph88%30.24 "HgN/A
8:20 AM64 °FScattered clouds.3 mph88%30.24 "HgN/A
7:50 AM64 °FScattered clouds.5 mph88%30.24 "HgN/A
7:20 AM64 °FScattered clouds.3 mph94%30.24 "HgN/A
6:50 AM64 °FFog.5 mph94%30.24 "Hg5 mi
6:20 AM63 °FFog.3 mph100%30.21 "Hg5 mi
5:50 AM61 °FFog.1 mph100%30.21 "Hg3 mi
5:20 AM61 °FMostly cloudy.2 mph100%30.21 "Hg5 mi
4:50 AM57 °FLight fog.1 mph100%30.21 "Hg2 mi
4:20 AM57 °FCool.3 mph100%30.18 "Hg4 mi
3:50 AM59 °FLight fog.No wind100%30.18 "Hg1 mi
3:20 AM59 °FCool.3 mph94%30.18 "Hg6 mi
2:50 AM59 °FCool.No wind100%30.18 "Hg6 mi
2:20 AM59 °FCool.No wind100%30.18 "HgN/A
1:50 AM59 °FFog.2 mph94%30.18 "Hg6 mi
1:20 AM59 °FCool.2 mph100%30.18 "HgN/A
12:50 AM59 °FCool.No wind100%30.18 "HgN/A
12:20 AM59 °FCool.No wind100%30.18 "HgN/A
11:50 PM
Jul 21
61 °FCool.No wind94%30.18 "HgN/A
11:20 PM61 °FCool.No wind100%30.18 "HgN/A
10:50 PM63 °FMild.No wind94%30.15 "HgN/A
10:20 PM63 °FMild.No wind94%30.15 "HgN/A
9:50 PM64 °FMild.2 mph88%30.15 "HgN/A
9:20 PM66 °FSunny.2 mph88%30.15 "Hg10 mi
8:50 PM70 °FSunny.2 mph73%30.15 "Hg10 mi
8:20 PM70 °FSunny.2 mph78%30.15 "Hg10 mi
7:50 PM70 °FSunny.2 mph78%30.12 "Hg10 mi
7:20 PM72 °FSunny.2 mph73%30.12 "Hg10 mi
6:50 PM72 °FSunny.3 mph73%30.12 "Hg10 mi
6:20 PM72 °FScattered clouds.2 mph69%30.12 "HgN/A
5:50 PM70 °FScattered clouds.5 mph78%30.12 "HgN/A
5:20 PM70 °FScattered clouds.6 mph78%30.12 "HgN/A
4:50 PM68 °FThunderstorms. Scattered clouds.7 mph83%30.12 "HgN/A
4:20 PM68 °FScattered clouds.8 mph83%30.12 "HgN/A
3:50 PM68 °FThunderstorms. Partly sunny.7 mph83%30.12 "HgN/A
3:20 PM70 °FDrizzle. Partly sunny.8 mph83%30.09 "HgN/A
2:50 PM72 °FThunderstorms. Scattered clouds.8 mph78%30.12 "HgN/A
2:20 PM73 °FLight rain. Scattered clouds.3 mph69%30.12 "HgN/A
Weather by CustomWeather, © 2014

See weather overviewHow to use our weather pages